Regional Weather Roundup
Issued by NWS Albany, NY

Home | Current Version | Previous Version | Text Only | Print | Product List | Glossary On
Versions: 1 2 3 4 5 6 7 8 9 10 11 12 13 14 15 16 17 18 19 20 21 22 23 24 25 26 27 28 29 30 31 32 33 34 35 36 37 38 39 40 41 42 43 44 45 46 47 48 49 50
000
ASUS41 KALY 201210
RWRALY

NEW YORK STATE HOURLY WEATHER ROUNDUP
NATIONAL WEATHER SERVICE ALBANY NY
700 AM EST FRI JAN 20 2017

NOTE: "FAIR" INDICATES FEW OR NO CLOUDS BELOW 12,000 FEET WITH NO
SIGNIFICANT WEATHER AND/OR NO OBSTRUCTIONS TO VISIBILITY.

NYZ032-033-038>043-046>054-057>066-NYZ062>081-082-084-201300-
EAST


CITY           SKY/WX    TMP DP  RH WIND       PRES   REMARKS
ALBANY         CLOUDY    34  31  88 CALM      30.00F
GLENS FALLS    CLOUDY    33  31  92 CALM      30.00S
POUGHKEEPSIE   CLOUDY    36  30  79 CALM      30.00S
NEWBURGH       CLOUDY    36  30  80 SE6       30.00S WCI  31
MONTGOMERY     CLOUDY    37  30  75 E7        29.98S WCI  32
WHITE PLAINS   CLOUDY    37  29  72 E5        29.98F WCI  33
ISLIP          CLOUDY    39  33  79 CALM      30.01S
NEW YORK CITY  CLOUDY    41  31  67 NE8       30.00F
CENTRAL PARK   CLOUDY    40  31  70 E5        30.02S
$$

NYZ005>009-017-018-044>046-055-056-201300-
CENTRAL


CITY           SKY/WX    TMP DP  RH WIND       PRES   REMARKS
FULTON         CLOUDY    35  31  85 SE5       29.92S WCI  31
SYRACUSE       CLOUDY    34  32  92 SE8       29.92F WCI  27
ROME           CLOUDY    33  32  96 E8        29.96F WCI  26
ELMIRA         PTCLDY    34  29  82 SE7       29.89S WCI  28
BINGHAMTON     CLOUDY    30  30 100 SE8       29.89S FOG     WCI  22
MONTICELLO     CLOUDY    32  30  93 E3        29.95S
$$

NYZ026>034-041>043-087-201300-
NORTH


CITY           SKY/WX    TMP DP  RH WIND       PRES   REMARKS
WATERTOWN      CLOUDY    34  33  96 SE3       29.93F
FORT DRUM      NOT AVBL
OGDENSBURG     CLOUDY    34  34  99 CALM      29.94S
MASSENA        CLOUDY    33  32  96 CALM      29.97S
SARANAC LAKE   CLOUDY    29  26  89 CALM      29.88F
PLATTSBURGH    CLOUDY    32  30  92 CALM      29.98F
$$

NYZ001>004-010>016-019>021-085-201300-
WEST


CITY           SKY/WX    TMP DP  RH WIND       PRES   REMARKS
NIAGARA FALLS  CLOUDY    36  33  89 E5        29.82F FOG     WCI  32
BUFFALO        CLOUDY    36  33  89 SE6       29.82F WCI  31
DUNKIRK        CLEAR     31  30  96 NE8       29.80S WCI  23
JAMESTOWN      CLOUDY    30  28  93 S3        29.76F
WELLSVILLE     PTCLDY    33  31  92 VRB3      29.82S
ROCHESTER      CLOUDY    35  33  92 E5        29.86F WCI  31
PENN YAN       CLOUDY    35  30  82 SE5       29.87F WCI  31
$$

             KEY
       WCI = WIND CHILL INDEX
       VSB = VISIBILITY
       HX  = HEAT INDEX
$$



USA.gov is the U.S. government's official web portal to all federal, state and local government web resources and services.